Regional Weather Roundup
Issued by NWS Boston, MA

Home | Current Version | Previous Version | Text Only | Print | Product List | Glossary On
Versions: 1 2 3 4 5 6 7 8 9 10 11 12 13 14 15 16 17 18 19 20 21 22 23 24 25 26 27 28 29 30 31 32 33 34 35 36 37 38 39 40 41 42 43 44 45 46 47 48 49 50
000
ASUS41 KBOX 161310
RWRBOX

REGIONAL WEATHER ROUNDUP
NATIONAL WEATHER SERVICE TAUNTON MA
800 AM EST SAT DEC 16 2017

NOTE:  "FAIR" INDICATES FEW OR NO CLOUDS BELOW 12,000 FEET WITH NO
SIGNIFICANT WEATHER AND/OR OBSTRUCTIONS TO VISIBILITY.

MAZALL-161400-
EASTERN MASSACHUSETTS

CITY           SKY/WX    TMP DP  RH WIND       PRES   REMARKS
BOSTON         PTCLDY    24  16  71 W10       29.90R WCI  14
BEVERLY        PTCLDY    20  15  81 W7        29.87R WCI  11
LAWRENCE       CLEAR     20  13  74 SW7       29.89R WCI  11
BEDFORD        CLEAR     16  13  88 W5        29.88R WCI   9
BLUE HILL        N/A     18  13  80 W13       29.85R WCI   5
NORWOOD        CLEAR     21  16  81 SW3       29.91R
MARSHFIELD     CLEAR     21  16  79 W10       29.90R WCI  10
PLYMOUTH       CLEAR     18  14  84 SW7       29.91R WCI   9
TAUNTON        CLEAR     20  15  81 W7        29.92R WCI  11
NEW BEDFORD    CLEAR     22  18  85 W9        29.91R WCI  12
$$

MAZALL-161400-
CAPE COD AND THE ISLANDS

CITY           SKY/WX    TMP DP  RH WIND       PRES   REMARKS
FALMOUTH       CLEAR     23  16  74 W14       29.92R WCI  11
HYANNIS        CLEAR     24  17  74 W12       29.89R WCI  13
CHATHAM        CLEAR     23  19  85 W7        29.90R WCI  15
PROVINCETOWN   PTCLDY    27  21  78 W20G26    29.89R WCI  13
NANTUCKET      CLEAR     27  21  78 W16       29.92R WCI  15
MARTHAS VNYRD  CLEAR     27  21  78 NW14G21   29.92R WCI  16
$$

MAZALL-161400-
CENTRAL AND WESTERN MASSACHUSETTS

CITY           SKY/WX    TMP DP  RH WIND       PRES   REMARKS
WORCESTER      CLEAR     17  11  77 W17       29.83R WCI   1
FITCHBURG      CLEAR     22  14  71 VRB3      29.88R
ORANGE         NOT AVBL
SPRINGFIELD    PTCLDY    13  10  87 CALM      29.92R
WESTFIELD      CLEAR     10   9  95 SW3       29.92R
NORTH ADAMS    PTCLDY    21  12  68 W8        29.87R WCI  11
PITTSFIELD     CLEAR     12   7  80 W9        29.84R WCI   0
$$

RIZALL-161400-
RHODE ISLAND

CITY           SKY/WX    TMP DP  RH WIND       PRES   REMARKS
PROVIDENCE     CLEAR     20  16  84 W8        29.94R WCI  10
NEWPORT        CLEAR     23  16  74 W7        29.93R WCI  15
BLOCK ISLAND   CLEAR     30  22  72 W17G30    29.95R WCI  18
SMITHFIELD     CLEAR     18  15  88 W7        29.90R WCI   9
WESTERLY       CLEAR     24  18  77 W8        29.96R WCI  15
$$

CTZALL-161400-
CONNECTICUT

CITY           SKY/WX    TMP DP  RH WIND       PRES   REMARKS
BRADLEY INTL   MOCLDY    15  13  91 S3        29.94R
HARTFORD       CLEAR     19  16  88 S5        29.96R WCI  12
BRIDGEPORT     CLEAR     27  19  72 W12G21    29.99R WCI  17
DANBURY        CLEAR     21  14  74 SW7       29.97R WCI  12
GROTON         CLEAR     25  16  68 W13       29.97R WCI  14
NEW HAVEN      PTCLDY    27  19  72 W15G26    29.99R WCI  15
CHESTER        FAIR      23  16  74 W6        29.95R WCI  16
MERIDEN        CLOUDY    14  12  92 S5        29.97R WCI   6
WILLIMANTIC    CLEAR     10   6  84 CALM      29.95R
OXFORD         CLEAR     19  15  84 W6        29.93R WCI  11
$$

MEZ002-015-021-024-NHZ003-005-008-011-012-014-VTZ005-008-161400-
NORTHERN NEW ENGLAND

CITY           SKY/WX    TMP DP  RH WIND       PRES   REMARKS
PORTLAND ME    CLEAR     14  12  92 SW5       29.84R WCI   6
BANGOR ME      PTCLDY    12  10  92 CALM      29.79R
CONCORD NH     CLEAR      6   3  87 CALM      29.85R
MANCHESTER NH  PTCLDY    14  10  84 S5        29.85R WCI   6
NASHUA NH      CLEAR     11   9  92 CALM      29.88R
PORTSMOUTH NH  PTCLDY    19  11  71 W6        29.85R WCI  10
JAFFREY NH     CLEAR     11   7  84 S7        29.81R WCI   0
KEENE NH       CLEAR      5   3  91 CALM      29.88R
BURLINGTON VT  FLURRIES  22  14  71 S14       29.81R WCI   9
MT. WASHINGTON SNOW      -2  -2 100 W41         N/A  VSB 0   WCI -32
$$

NYZ052-076-161400-
EASTERN NEW YORK

CITY           SKY/WX    TMP DP  RH WIND       PRES   REMARKS
ALBANY         PTCLDY    11   7  84 CALM      29.91R
NEW YORK CITY  PTCLDY    29  16  58 SW16      30.04R WCI  17
$$

ANZALL-161400-
MARINE OBSERVATIONS

STATION/POSITION TIME  TEMP    WIND        PRES    VSBY  WAVE
                       AIR SEA DIR/SP/G                  HT/PER
                 (UTC) (F)     (DEG/KT/KT) (MB)    (MI)  (FT/S)
BOSTON BUOY      1150   28 47  270/ 17/ 23 1010.6          3/ 4
BUZZARDS BAY     1200   29     280/ 25/ 28 1013.4R
NANTUCKET SOUND  1150   29 42  290/ 23/ 27 1011.9          3/ 4
MASS BAY-STELLWA 1204   27 47  290/ 17/ 23 1010.6R         3/ 4
ISLE OF SHOALS   1200   23     270/ 18/ 20 1010.3R
S OF BLOCK IS    1243      52                N/A           7/ 6
$$

......................KEY.........................
  SKY/WX - SKY CONDITION/PRESENT WEATHER
  TMP    - TEMPERATURE IN FAHRENHEIT
  DWPT   - DEWPOINT IN FAHRENHEIT
  RH     - RELATIVE HUMIDITY IN PERCENT
  WIND   - DIRECTION AND SPEED IN MPH
  PRES   - MEAN SEA LEVEL PRESSURE IN INCHES OF HG
  WCI    - WIND CHILL INDEX
  VSB    - VISIBILITY IN MILES
  HX     - HEAT INDEX
  TC     - TEMPERATURE IN CELSIUS
  VRB    - VARIABLE WIND DIRECTION
  N/A    - NOT AVAILABLE



USA.gov is the U.S. government's official web portal to all federal, state and local government web resources and services.